Voltar ao catálogo

STARLINK-34326

AtivoComunicaçõesVLEO
NORAD 64221·PAYLOAD·🇺🇸 United States

Lançado May 31, 2025 de Vandenberg Space Force Base

Loading…

Próximas Passagens (próximas 24 horas)

TLE

AtualizadoSource: CelesTrak SupGP

Época: Sep 15, 2026, 03:00 UTC

1 64221C 25117U   26258.12548611 -.00044830  00000+0 -13243-2 0  2585
2 64221  53.1582 236.7088 0001388  92.4687 183.0454 15.34416943    17

Acompanhe STARLINK-34326 em tempo real com AllMySat

Download on the App Store